Temp_Advection
nan nan nan nan nan nan nan nan nan nan nan nan nan nan nan nan nan nan nan nan nan nan nan nan nan nan nan nan nan nan nan nan nan nan nan nan nan nan nan nan nan nan nan nan
nan -0 -2 -0 0 0 0 0 -1 -2 -1 -1 -1 -2 -1 -0 -0 -1 -0 -1 -0 -1 -1 -0 0 -0 0 0 0 0 1 1 1 1 2 0 0 0 0 0 1 1 1 nan
nan -1 -0 0 0 0 1 -0 -0 -1 -2 -1 -1 -0 -0 0 -0 0 -0 -0 -0 -1 -1 -0 -0 1 1 1 1 1 1 2 2 3 2 1 1 0 1 0 -0 0 1 nan
nan -0 0 0 -0 1 0 -1 0 -1 -0 -0 -0 -0 -1 -0 -0 0 0 -0 -0 -1 -1 0 2 3 2 2 2 2 2 2 2 2 1 1 1 0 -0 0 0 0 2 nan
nan 0 0 -0 -1 1 -0 -1 -1 -1 -0 -0 -0 0 -0 -1 -0 -0 0 -0 -0 -0 1 1 3 2 2 2 2 1 1 0 1 1 1 0 0 0 0 0 0 1 1 nan
nan -1 0 -1 -1 0 0 -0 -1 -0 0 -0 -1 0 -0 -0 -0 0 0 -0 0 -1 1 0 0 1 0 1 1 0 0 -0 0 0 0 0 0 0 -0 -0 0 1 1 nan
nan -0 -0 0 -0 0 0 -0 0 0 -0 -0 -0 -0 -1 -0 -0 -0 0 0 0 -1 0 -0 -0 -0 0 0 0 0 0 -0 -0 0 0 0 0 0 0 0 -0 -0 1 nan
nan -1 0 0 0 -0 -0 -0 -0 -0 -0 -0 0 -0 -0 -1 -0 0 -0 -1 1 0 1 2 0 0 0 1 0 0 0 0 0 0 0 0 0 0 0 0 0 -0 -0 nan
nan -1 -1 0 1 -0 0 -0 -1 0 0 0 0 -0 -0 -1 -1 -0 -1 -1 -1 -1 -1 2 2 1 1 1 0 -0 -0 -0 -0 0 -0 -0 0 -0 0 1 0 -0 -0 nan
nan -0 -0 0 -1 -0 0 -0 -0 -0 -0 -0 -0 -0 -0 -0 -0 -1 -1 -1 -2 -1 -0 0 1 1 1 0 -0 -1 -1 -1 -1 -0 0 -1 -1 -0 0 1 0 -0 0 nan
nan -0 -1 0 0 -0 -0 -0 -0 -0 -0 -0 -0 0 -0 -0 -1 -1 -1 -1 -1 -1 -0 0 0 0 -0 -0 -0 -0 -0 -1 -1 -1 -1 -1 -1 -0 0 -0 -0 -0 0 nan
nan -0 -0 -1 -0 0 0 -0 -0 -0 -0 -0 -0 0 0 -0 -1 -1 -1 -2 -1 -0 0 -0 1 1 0 -0 -1 -2 -2 -1 -2 -2 -1 -1 -1 0 0 -1 -1 -0 0 nan
nan 0 -0 -1 -0 -1 -0 -0 -0 0 0 -0 0 -0 -0 -0 -1 -2 -2 -1 -1 -0 -2 -1 -0 -1 -2 -1 -1 -2 -2 -2 -2 -2 -2 -2 -1 -0 0 -1 -0 -0 0 nan
nan 0 0 -0 -0 -0 -0 -1 -0 -0 -0 -0 -0 -0 -1 -1 -1 -1 -1 -1 -1 -1 -1 -1 -1 -2 -2 -1 -2 -1 -1 -1 -1 -2 -2 -2 -2 -1 -1 -0 -0 0 0 nan
nan -0 -0 -1 0 0 -0 -0 -1 0 -0 0 -0 -0 -1 -0 -1 -1 -1 -0 -1 -1 -1 -1 -0 -0 -0 -1 -1 -1 -2 -1 -1 -1 -2 -2 -2 -1 -1 -1 -0 0 -0 nan
nan -0 -0 -0 0 -0 0 -0 -1 -1 -1 0 -0 -1 -1 -1 -1 -1 -1 -0 -1 -1 -1 -0 0 -0 -1 -1 -1 -1 -1 -1 -1 -1 -1 -1 -1 -1 -1 -1 -0 -0 -0 nan
nan -0 -0 -0 -1 -0 -0 -1 -0 -1 -1 -1 -0 -1 -1 -1 -1 -1 -1 -1 -1 -1 -0 -0 -0 -0 -0 -0 -0 -1 -1 -1 -1 -1 -1 -1 -1 -1 -1 -1 -0 -0 0 nan
nan 0 -0 -0 -0 -0 -0 -0 -0 -0 -0 -1 -1 -1 -0 -1 -1 -1 -1 -1 -1 -0 -0 -0 0 -0 -0 -0 -0 -0 0 0 -0 -1 -1 -1 -2 -2 -2 -1 -1 0 -0 nan
nan 0 -0 -0 -0 0 -0 -0 -0 0 -0 -0 -0 -0 -0 -0 -0 -1 -1 -0 -0 -0 -0 0 -0 -0 -0 -0 -0 -0 -1 -1 -1 -1 -2 -2 -2 -2 -2 -2 -1 -0 -0 nan
nan -0 -0 -0 -0 -0 -0 -0 -1 -0 -0 -0 -0 -0 -0 -0 -0 -0 -0 -0 -0 -0 0 0 0 0 -0 -0 -1 -1 -1 -2 -2 -1 -1 -1 -1 -2 -2 -2 -1 -0 0 nan
nan -0 -0 -0 -0 -0 -1 -1 -1 -0 -0 -0 -0 -0 -0 -0 -0 -0 -0 -0 -0 -0 0 -0 -0 -0 -1 -0 -0 -1 -1 -2 -1 -0 -0 -0 -1 -1 -1 -2 -0 0 1 nan
nan -0 -0 -0 -0 -0 -1 -0 -0 -0 -1 -0 -0 -0 -0 -0 -0 -0 -0 -0 -0 -0 -0 -1 -1 -0 -0 -0 -1 -1 -1 -1 -0 -0 -0 -0 -1 -1 -1 -1 -1 3 4 nan
nan 0 -0 -0 -0 -0 -0 -0 -0 -0 -0 -0 -0 -0 -0 -0 -0 -0 -0 -0 -0 -0 -0 -0 -0 0 0 -0 -1 -1 -1 -0 -0 -0 -0 -1 -1 -1 -1 -0 -0 2 4 nan
nan -0 -0 0 -0 -0 -0 -0 -0 -0 -0 -0 -0 -0 -0 -0 -0 -0 -0 -0 -0 -0 -0 -0 0 -0 -1 -1 -1 -1 -0 0 -0 -0 -1 -1 -0 -1 -1 0 1 0 1 nan
nan -0 -0 0 -0 -0 -0 -0 -0 -0 -0 -0 -0 -0 -0 -0 -0 -0 -0 -0 -0 -0 -0 -0 -1 -1 -1 -1 -0 -0 -0 -0 -0 -0 -0 -0 -0 -1 -2 -1 2 2 0 nan
nan nan nan nan nan nan nan nan nan nan nan nan nan nan nan nan nan nan nan nan nan nan nan nan nan nan nan nan nan nan nan nan nan nan nan nan nan nan nan nan nan nan nan nan
Wind_Speed
5 3 11 16 17 18 19 21 22 24 23 19 22 23 28 15 20 21 27 32 33 36 39 37 35 34 39 38 35 36 32 36 43 47 44 40 35 30 29 29 29 27 26 25
1 13 20 17 20 19 20 22 23 22 23 21 22 26 24 19 18 27 25 30 33 37 41 36 38 38 40 37 40 39 38 37 43 45 47 41 33 27 27 29 27 29 29 28
8 14 7 11 15 19 25 29 20 21 20 20 17 8 15 7 19 22 14 21 30 34 32 36 39 40 40 35 30 28 26 31 41 45 45 36 28 25 29 33 30 30 33 32
8 7 9 13 20 19 25 19 20 22 18 10 2 7 5 6 9 6 7 2 19 35 33 32 32 33 25 22 21 20 20 23 28 32 29 29 29 30 28 28 30 29 32 33
12 7 9 15 19 11 17 18 19 22 19 12 15 3 7 6 5 9 9 8 6 8 11 17 30 33 29 30 30 30 27 23 20 17 14 14 28 31 28 28 28 28 31 31
19 17 5 16 24 13 9 16 17 17 6 12 19 10 6 6 13 7 5 8 10 23 36 37 37 34 31 28 27 24 22 19 15 11 11 10 10 13 28 34 33 31 32 31
13 3 2 9 15 6 7 7 1 4 6 7 17 9 17 6 5 7 7 1 7 34 35 34 31 31 26 22 21 19 15 11 8 8 8 9 10 11 16 20 27 31 32 34
7 9 6 9 2 6 8 11 5 4 3 4 13 8 6 11 12 10 5 18 29 25 20 25 24 24 22 19 15 10 5 2 8 11 14 15 17 19 21 23 25 27 31 32
7 8 20 8 11 3 1 6 17 2 7 2 5 4 6 10 11 10 24 34 34 33 27 37 30 24 20 15 12 8 6 10 16 21 23 24 23 23 29 31 28 28 30 33
4 9 7 15 9 3 7 4 3 3 2 3 1 3 3 10 19 20 19 22 32 31 33 29 26 22 17 12 9 9 10 12 18 23 27 27 26 28 29 33 33 33 32 33
7 4 8 6 4 4 7 3 5 2 1 3 3 2 5 10 13 21 17 23 29 31 28 23 21 18 16 14 13 14 14 16 19 22 28 29 28 29 30 31 32 38 33 35
4 4 6 11 9 11 5 11 7 2 3 2 2 2 14 16 17 17 21 23 26 32 27 23 20 17 18 18 18 21 22 21 22 23 26 28 28 29 29 25 30 34 34 34
6 3 6 8 3 10 5 9 14 4 2 5 1 2 13 18 19 25 23 24 27 31 29 24 24 26 23 21 21 22 21 21 23 25 27 27 27 26 25 22 19 25 30 34
8 3 2 5 10 6 7 16 16 8 3 3 1 4 15 14 13 19 23 20 23 26 17 16 23 22 21 22 22 23 24 24 27 29 29 28 25 23 22 22 17 24 26 30
2 4 5 15 9 5 5 12 12 9 10 3 9 4 8 10 13 16 20 17 19 17 16 20 22 24 25 25 26 27 28 28 30 32 33 32 26 22 21 24 21 22 25 28
5 4 6 6 4 6 11 11 15 11 13 13 16 9 11 17 18 20 16 14 16 18 17 19 23 25 26 28 30 30 31 31 31 32 33 33 26 21 18 21 22 23 26 28
4 3 5 4 13 7 8 15 17 12 22 7 5 6 10 14 16 18 16 17 15 16 17 18 20 23 24 26 28 30 31 30 30 31 31 32 28 23 19 20 21 26 28 29
4 4 2 4 8 3 5 16 8 19 18 18 14 10 10 15 18 19 22 18 17 18 18 18 21 21 22 23 26 28 30 31 31 31 32 32 30 25 22 20 24 28 28 31
6 1 3 2 3 3 8 14 9 6 10 13 11 7 7 12 13 18 18 17 15 15 16 14 16 17 19 22 25 27 30 33 34 34 34 35 32 26 21 20 24 27 28 33
7 1 2 3 2 5 4 19 21 7 7 12 13 10 5 11 3 3 12 13 13 14 16 16 17 18 20 23 24 25 28 31 33 34 31 30 28 24 19 19 21 29 35 40
5 4 3 3 2 2 12 20 19 3 4 10 11 9 13 6 6 3 8 12 15 16 17 16 16 20 21 21 23 25 27 30 29 28 26 25 23 20 16 16 14 26 39 40
4 3 4 4 4 4 26 8 6 3 13 13 10 8 11 11 8 6 9 12 15 16 16 16 16 17 19 20 22 25 27 26 26 25 24 24 23 19 15 14 12 23 37 40
3 2 2 4 2 5 7 9 10 11 10 12 16 12 8 9 7 7 9 12 16 17 15 15 16 16 18 20 21 22 24 24 24 24 24 23 21 19 16 11 6 14 27 35
3 7 3 4 4 6 7 7 9 10 11 9 8 13 10 9 8 9 9 11 14 16 17 16 16 17 19 20 20 20 21 22 22 23 23 22 24 25 25 25 16 4 17 26
2 4 1 3 5 6 6 6 6 6 5 10 10 10 10 6 8 6 8 10 12 14 15 15 16 17 18 17 19 19 19 20 21 22 22 22 24 26 32 34 35 29 24 19
4 2 1 2 2 2 2 3 5 5 6 5 6 7 8 8 7 6 8 9 11 13 14 14 14 14 16 16 16 17 18 18 18 20 22 22 22 24 29 34 35 36 34 31
Wind_Direction
259 213 235 257 248 258 274 271 267 275 282 300 262 268 253 230 234 238 230 239 244 243 250 259 253 241 235 233 233 244 231 218 222 224 220 215 216 222 228 233 242 239 242 240
45 242 250 254 256 261 265 267 268 272 276 276 269 257 260 240 228 226 219 227 239 247 245 253 252 255 244 237 238 241 245 224 217 223 223 218 219 229 238 239 245 242 241 243
207 242 287 246 251 253 251 246 255 263 271 280 285 242 251 216 222 222 226 235 240 243 243 246 246 251 243 237 239 232 224 223 221 221 221 218 225 231 233 231 235 246 244 249
261 283 261 247 256 265 253 242 248 256 246 260 235 277 292 252 239 195 218 312 239 240 240 253 233 224 205 182 185 181 181 196 209 213 215 222 227 231 237 244 239 248 248 248
254 257 241 260 261 267 253 245 241 253 237 253 257 248 256 270 253 230 223 215 269 298 220 143 132 135 139 136 131 131 139 136 144 158 177 220 243 238 244 253 254 253 244 245
254 259 257 258 280 268 249 232 243 247 228 255 253 213 265 198 210 229 171 215 250 115 124 126 121 128 119 119 128 131 138 136 142 167 189 196 197 233 251 251 250 251 248 244
294 251 243 355 321 278 204 209 238 203 218 223 203 199 245 276 272 218 196 113 131 133 119 116 117 114 120 120 119 132 137 139 158 191 215 231 244 248 253 251 259 252 248 247
336 315 4 335 305 288 272 181 200 220 208 186 152 214 249 226 233 241 60 94 107 87 114 128 114 114 99 95 96 97 100 321 316 306 295 290 272 270 267 266 253 256 253 252
310 287 309 289 323 218 268 180 212 283 259 61 186 274 315 10 40 87 95 94 89 97 86 89 101 98 94 87 77 57 11 334 316 305 302 294 295 284 267 262 259 249 254 253
302 298 340 311 336 246 225 186 122 101 268 265 285 63 347 59 87 80 81 82 80 77 77 81 80 79 74 69 48 17 356 329 314 303 301 300 299 292 277 264 252 246 243 252
302 279 313 327 324 309 345 355 53 98 30 18 314 98 324 101 90 92 74 72 76 71 64 60 59 60 51 36 19 358 341 327 315 301 301 301 295 294 282 265 255 244 237 246
276 293 290 293 264 256 273 354 30 78 357 245 210 272 82 71 77 75 76 67 67 61 53 41 37 39 33 19 8 356 342 328 319 314 307 304 301 291 281 270 257 244 235 238
326 315 312 337 271 51 26 328 325 298 43 287 345 346 78 73 68 63 53 45 53 49 36 22 26 26 16 4 359 353 344 334 328 320 315 308 304 288 274 264 249 239 234 239
352 283 310 295 276 278 292 311 312 173 210 233 115 31 75 75 66 58 57 47 56 56 31 28 34 29 20 12 2 351 346 339 334 332 328 322 307 287 270 248 251 240 233 240
43 269 287 295 292 331 298 290 318 44 355 171 106 95 92 70 74 72 57 43 42 45 32 29 24 24 18 10 3 357 352 347 342 337 335 329 312 291 271 248 243 247 245 248
348 278 313 307 317 38 11 43 45 29 6 86 99 70 60 66 63 59 66 63 44 36 34 26 23 23 19 9 3 358 353 350 346 342 338 330 319 297 274 249 243 248 245 244
276 310 330 285 327 90 24 2 49 49 23 331 77 87 90 61 51 42 46 45 37 32 27 24 19 18 14 7 360 357 353 349 349 345 341 334 325 306 285 249 242 256 242 235
261 330 289 291 325 55 10 16 25 55 33 17 51 61 72 84 68 47 35 36 30 23 18 14 12 9 6 3 1 357 355 354 353 349 348 343 330 315 295 260 241 253 241 231
204 271 308 348 325 119 39 358 347 359 44 24 31 41 103 122 69 42 27 21 21 12 12 9 5 5 4 5 3 359 0 1 356 354 352 347 337 321 304 270 237 242 235 223
19 32 125 337 23 35 0 330 326 267 52 28 21 32 42 221 30 30 6 18 19 18 15 11 8 4 6 9 2 2 7 4 2 356 352 347 336 325 314 291 233 226 219 213
340 353 39 345 28 101 351 327 319 72 359 30 34 39 52 70 75 81 20 25 23 20 17 13 10 10 9 6 4 9 10 9 3 357 353 353 347 338 334 306 224 205 209 205
17 342 3 356 31 343 359 10 51 341 29 25 35 55 83 93 90 69 48 40 30 26 21 21 16 18 15 11 9 12 12 9 7 5 2 4 1 358 358 334 237 183 177 187
30 358 106 21 53 49 33 40 36 48 47 28 38 37 85 87 76 64 46 33 25 22 22 22 23 23 21 17 18 16 12 13 14 17 18 19 23 25 38 31 269 159 165 163
15 36 82 177 75 81 42 31 28 32 42 29 37 57 70 89 77 55 34 24 12 9 14 15 20 24 22 21 21 22 17 14 19 26 31 33 42 48 54 68 76 126 135 141
318 5 351 117 130 127 68 36 15 22 49 57 46 48 55 77 64 44 34 22 13 6 13 14 20 23 22 18 23 22 21 18 24 32 39 48 53 60 61 61 70 81 82 99
20 11 25 262 33 254 136 57 21 42 45 52 76 64 65 76 68 26 27 16 7 11 15 19 25 26 21 19 23 27 25 25 26 38 45 50 61 71 78 77 76 80 84 91
Height
1469 1473 1470 1462 1464 1463 1458 1454 1453 1442 1434 1438 1424 1414 1400 1404 1404 1401 1401 1401 1404 1409 1413 1417 1421 1427 1430 1432 1434 1435 1439 1445 1449 1451 1455 1459 1463 1468 1471 1474 1476 1479 1482 1486
1466 1465 1454 1454 1453 1457 1455 1452 1446 1438 1434 1434 1420 1406 1397 1395 1393 1393 1393 1394 1396 1401 1406 1409 1411 1415 1419 1424 1427 1429 1434 1438 1442 1446 1450 1455 1460 1466 1468 1471 1473 1476 1477 1480
1461 1448 1446 1447 1446 1449 1442 1435 1437 1442 1432 1425 1418 1404 1391 1385 1383 1387 1389 1389 1392 1396 1399 1402 1404 1406 1411 1417 1421 1423 1427 1433 1437 1442 1446 1453 1458 1462 1464 1467 1470 1470 1473 1476
1457 1446 1443 1441 1436 1439 1440 1430 1432 1435 1431 1432 1413 1414 1395 1384 1382 1381 1384 1384 1387 1389 1393 1395 1395 1401 1410 1415 1419 1420 1425 1430 1436 1440 1446 1452 1455 1456 1459 1460 1464 1466 1469 1470
1447 1443 1442 1440 1430 1427 1420 1430 1426 1426 1419 1427 1414 1418 1395 1386 1382 1379 1379 1380 1384 1387 1389 1395 1394 1400 1407 1412 1414 1417 1424 1428 1433 1436 1442 1448 1451 1453 1455 1456 1458 1460 1463 1465
1442 1432 1434 1423 1413 1413 1413 1419 1416 1415 1418 1426 1413 1413 1396 1386 1373 1373 1374 1377 1383 1388 1386 1392 1394 1401 1407 1415 1418 1423 1427 1432 1435 1437 1440 1443 1445 1447 1449 1451 1452 1453 1455 1459
1437 1421 1422 1417 1406 1399 1408 1414 1424 1428 1426 1409 1395 1411 1383 1375 1369 1368 1370 1376 1384 1386 1390 1393 1400 1404 1410 1415 1420 1422 1426 1430 1434 1437 1438 1440 1440 1441 1442 1443 1447 1449 1450 1451
1440 1427 1413 1414 1420 1411 1403 1405 1409 1410 1395 1397 1389 1398 1381 1365 1361 1364 1371 1381 1385 1386 1398 1395 1400 1404 1410 1414 1417 1419 1421 1424 1427 1430 1432 1433 1434 1435 1436 1436 1438 1441 1444 1446
1442 1424 1410 1409 1405 1405 1390 1401 1390 1391 1393 1390 1391 1380 1369 1360 1364 1367 1377 1383 1388 1399 1407 1400 1405 1408 1411 1414 1417 1420 1421 1422 1423 1424 1425 1426 1426 1428 1429 1430 1430 1432 1436 1438
1442 1433 1411 1404 1396 1387 1390 1385 1397 1400 1401 1395 1391 1387 1391 1386 1381 1383 1391 1394 1395 1402 1406 1410 1411 1412 1414 1416 1420 1422 1423 1423 1423 1422 1422 1421 1420 1420 1421 1419 1420 1424 1428 1431
1443 1440 1418 1411 1415 1408 1399 1395 1398 1397 1404 1402 1398 1394 1389 1388 1390 1389 1401 1403 1400 1401 1406 1412 1413 1414 1416 1418 1416 1417 1418 1419 1418 1419 1416 1414 1413 1412 1410 1409 1411 1414 1419 1422
1444 1441 1431 1414 1403 1404 1403 1404 1402 1405 1407 1406 1402 1402 1395 1395 1397 1397 1404 1407 1407 1403 1407 1413 1414 1413 1413 1415 1414 1408 1408 1414 1414 1410 1410 1408 1405 1403 1400 1400 1400 1404 1409 1413
1443 1440 1435 1417 1410 1406 1418 1414 1413 1411 1410 1405 1399 1398 1397 1402 1404 1407 1396 1410 1407 1405 1407 1417 1412 1403 1406 1413 1411 1413 1415 1413 1409 1406 1406 1401 1398 1395 1392 1393 1393 1397 1401 1405
1444 1443 1443 1441 1435 1427 1423 1419 1408 1408 1411 1398 1395 1403 1406 1410 1412 1416 1420 1424 1420 1417 1426 1427 1420 1419 1419 1415 1414 1414 1411 1409 1406 1402 1398 1394 1392 1388 1386 1387 1386 1391 1394 1397
1449 1446 1437 1427 1420 1423 1422 1418 1409 1399 1398 1394 1398 1406 1418 1419 1420 1422 1424 1430 1431 1431 1431 1426 1424 1420 1418 1416 1415 1411 1408 1405 1400 1396 1391 1386 1384 1379 1378 1380 1381 1383 1385 1388
1448 1446 1436 1424 1416 1425 1421 1412 1416 1412 1414 1408 1410 1417 1424 1426 1428 1431 1434 1431 1434 1432 1431 1428 1425 1422 1420 1418 1415 1410 1406 1400 1396 1391 1386 1383 1378 1373 1371 1373 1373 1375 1378 1380
1452 1447 1442 1430 1418 1417 1425 1437 1429 1430 1427 1415 1414 1428 1432 1433 1436 1439 1438 1436 1438 1437 1435 1432 1430 1426 1423 1421 1415 1410 1405 1400 1393 1389 1384 1377 1371 1367 1365 1365 1367 1368 1371 1373
1448 1447 1444 1437 1424 1427 1442 1442 1439 1438 1440 1436 1432 1438 1439 1441 1445 1444 1441 1440 1440 1438 1436 1433 1429 1426 1424 1420 1415 1410 1406 1398 1391 1386 1378 1371 1365 1361 1360 1358 1361 1363 1364 1366
1446 1448 1450 1444 1437 1437 1442 1446 1447 1447 1451 1450 1446 1444 1446 1446 1445 1447 1447 1445 1443 1442 1438 1435 1433 1430 1425 1420 1414 1410 1404 1397 1391 1382 1374 1368 1362 1359 1356 1354 1354 1356 1359 1362
1443 1444 1449 1446 1439 1446 1455 1452 1449 1446 1453 1458 1456 1454 1452 1448 1448 1454 1453 1450 1447 1444 1439 1436 1433 1429 1424 1420 1417 1412 1405 1399 1392 1384 1378 1372 1367 1360 1353 1349 1348 1351 1351 1357
1455 1453 1458 1455 1449 1452 1462 1453 1443 1449 1465 1463 1461 1459 1455 1454 1457 1457 1455 1451 1447 1444 1440 1437 1433 1429 1426 1424 1419 1413 1407 1401 1396 1390 1383 1376 1368 1360 1352 1347 1344 1346 1346 1351
1465 1467 1464 1463 1462 1465 1464 1455 1456 1469 1467 1464 1461 1461 1458 1458 1460 1459 1457 1454 1451 1447 1444 1440 1437 1434 1429 1425 1420 1414 1409 1406 1399 1392 1385 1377 1369 1360 1352 1348 1346 1342 1341 1342
1466 1467 1471 1471 1473 1476 1476 1474 1473 1470 1468 1466 1464 1462 1461 1461 1462 1460 1457 1454 1451 1449 1447 1444 1440 1435 1430 1427 1422 1418 1414 1409 1403 1396 1388 1381 1374 1366 1357 1351 1350 1346 1344 1342
1466 1467 1470 1474 1478 1478 1477 1475 1474 1472 1470 1470 1468 1466 1465 1463 1462 1460 1458 1455 1453 1450 1447 1444 1440 1435 1432 1429 1426 1422 1418 1413 1408 1401 1393 1388 1380 1373 1367 1360 1355 1355 1350 1348
1474 1472 1474 1476 1479 1479 1478 1477 1475 1474 1473 1472 1470 1468 1467 1464 1462 1461 1459 1456 1455 1452 1448 1445 1442 1438 1435 1433 1429 1425 1421 1417 1412 1406 1401 1395 1388 1383 1378 1372 1366 1360 1362 1361
1475 1477 1477 1480 1477 1477 1478 1478 1477 1475 1474 1471 1470 1469 1468 1466 1463 1462 1461 1459 1456 1453 1450 1447 1445 1442 1440 1437 1433 1429 1426 1422 1417 1412 1406 1401 1397 1393 1388 1384 1380 1375 1373 1366